Precipitable_Water
1.05 1.09 1.11 1.11 1.13 1.16 1.13 1.11 1.09 1.08 1.07 1.08 1.08 1.06 1.04 1.04 1.04 1.02 1.00 0.97 0.94 0.91 0.91 0.89 0.86 0.80 0.73 0.71 0.72 0.73 0.77 0.82 0.89 0.94 0.93 0.91 0.87 0.83 0.82 0.81 0.84 0.87 0.88
1.12 1.12 1.12 1.13 1.14 1.17 1.16 1.14 1.12 1.09 1.09 1.10 1.07 1.10 1.09 1.11 1.10 1.10 1.11 1.11 1.09 1.06 1.04 1.02 0.98 0.96 0.93 0.87 0.80 0.79 0.79 0.82 0.87 0.95 1.03 1.00 0.99 0.97 0.90 0.85 0.85 0.86 0.87
1.19 1.19 1.19 1.19 1.22 1.23 1.22 1.22 1.20 1.19 1.14 1.14 1.11 1.12 1.13 1.12 1.10 1.10 1.12 1.11 1.10 1.07 1.05 1.05 1.08 1.06 1.04 1.03 1.01 0.96 0.91 0.87 0.83 0.87 0.89 0.96 1.05 1.12 1.12 1.03 0.96 0.90 0.86
1.22 1.20 1.19 1.20 1.23 1.21 1.18 1.12 1.07 1.01 0.99 0.99 0.97 0.99 1.01 1.01 0.99 0.99 1.01 1.00 1.02 1.03 1.02 1.04 1.05 1.08 1.11 1.12 1.12 1.11 1.09 1.04 1.01 0.97 0.96 0.95 1.03 1.07 1.12 1.12 1.12 1.13 1.08
1.20 1.18 1.13 1.06 1.00 0.95 0.90 0.87 0.85 0.85 0.82 0.85 0.88 0.88 0.88 0.87 0.89 0.93 0.94 0.95 0.97 0.98 0.99 1.01 1.01 1.03 1.05 1.08 1.12 1.15 1.18 1.18 1.15 1.10 1.06 1.02 0.99 1.03 1.07 1.12 1.11 1.07 1.07
0.95 0.88 0.78 0.71 0.71 0.69 0.68 0.69 0.69 0.72 0.73 0.76 0.73 0.73 0.78 0.78 0.82 0.89 0.92 0.96 1.00 1.02 1.02 1.02 1.04 1.05 1.03 1.06 1.08 1.11 1.14 1.17 1.19 1.22 1.23 1.17 1.13 1.10 1.08 1.08 1.10 1.10 1.11
0.69 0.66 0.65 0.64 0.64 0.64 0.65 0.66 0.63 0.59 0.57 0.61 0.56 0.57 0.58 0.65 0.70 0.71 0.94 0.82 0.74 0.88 0.96 0.98 1.01 1.08 1.13 1.14 1.12 1.12 1.16 1.18 1.16 1.19 1.22 1.20 1.21 1.19 1.17 1.12 1.12 1.14 1.09
0.64 0.62 0.63 0.64 0.64 0.60 0.58 0.57 0.56 0.53 0.54 0.55 0.50 0.48 0.41 0.48 0.54 0.59 0.56 0.59 0.64 0.67 0.81 0.96 1.06 1.06 1.10 1.13 1.12 1.16 1.16 1.21 1.25 1.19 1.20 1.23 1.24 1.23 1.19 1.16 1.15 1.15 1.17
0.63 0.62 0.58 0.53 0.52 0.52 0.49 0.48 0.47 0.45 0.41 0.43 0.45 0.42 0.38 0.35 0.41 0.48 0.49 0.53 0.60 0.59 0.61 0.69 0.75 0.75 0.79 0.89 0.92 0.93 1.00 1.09 1.08 1.11 1.16 1.17 1.24 1.27 1.28 1.26 1.21 1.15 1.14
0.51 0.49 0.48 0.46 0.45 0.43 0.40 0.38 0.36 0.36 0.36 0.33 0.36 0.38 0.39 0.39 0.35 0.32 0.43 0.45 0.48 0.53 0.50 0.55 0.58 0.59 0.63 0.67 0.80 0.89 0.86 0.81 0.86 1.01 1.15 1.19 1.19 1.24 1.29 1.33 1.32 1.31 1.27
0.49 0.43 0.41 0.37 0.33 0.32 0.31 0.31 0.30 0.31 0.33 0.31 0.30 0.33 0.36 0.37 0.37 0.31 0.25 0.31 0.35 0.38 0.39 0.40 0.46 0.54 0.56 0.57 0.73 0.85 0.89 0.97 1.03 1.06 1.07 1.14 1.24 1.23 1.24 1.36 1.39 1.36 1.39
0.40 0.38 0.36 0.34 0.30 0.29 0.27 0.27 0.28 0.30 0.30 0.28 0.29 0.31 0.34 0.31 0.30 0.27 0.23 0.24 0.26 0.28 0.31 0.35 0.41 0.50 0.58 0.63 0.71 0.78 0.84 0.81 0.84 0.87 0.98 1.09 1.16 1.24 1.29 1.28 1.20 1.30 1.42
0.38 0.34 0.31 0.28 0.27 0.26 0.25 0.25 0.25 0.28 0.28 0.26 0.28 0.31 0.31 0.27 0.27 0.25 0.25 0.27 0.27 0.30 0.35 0.41 0.42 0.48 0.52 0.54 0.54 0.60 0.55 0.59 0.65 0.77 0.91 0.93 0.99 1.07 1.12 1.14 1.14 1.14 1.21
0.33 0.30 0.28 0.26 0.25 0.24 0.23 0.24 0.24 0.25 0.25 0.25 0.23 0.26 0.27 0.23 0.24 0.25 0.27 0.27 0.24 0.27 0.24 0.25 0.33 0.39 0.38 0.38 0.41 0.48 0.47 0.42 0.45 0.57 0.63 0.66 0.76 0.81 0.86 0.94 0.99 1.02 1.06
0.31 0.28 0.27 0.25 0.24 0.23 0.23 0.23 0.22 0.22 0.21 0.19 0.19 0.21 0.22 0.22 0.24 0.26 0.25 0.23 0.21 0.20 0.19 0.20 0.20 0.21 0.23 0.26 0.31 0.43 0.42 0.36 0.38 0.36 0.43 0.44 0.47 0.70 0.76 0.81 0.81 0.84 0.87
0.30 0.27 0.25 0.24 0.22 0.22 0.21 0.20 0.19 0.18 0.17 0.18 0.19 0.19 0.22 0.22 0.23 0.21 0.20 0.19 0.21 0.21 0.19 0.20 0.19 0.23 0.23 0.29 0.35 0.35 0.35 0.36 0.38 0.39 0.34 0.31 0.51 0.40 0.40 0.52 0.62 0.72 0.82
0.28 0.25 0.23 0.22 0.21 0.20 0.18 0.17 0.17 0.16 0.17 0.18 0.19 0.19 0.20 0.21 0.20 0.19 0.19 0.19 0.20 0.22 0.21 0.20 0.26 0.23 0.22 0.23 0.25 0.28 0.32 0.34 0.35 0.33 0.35 0.44 0.38 0.34 0.34 0.39 0.48 0.55 0.63
0.26 0.24 0.23 0.21 0.19 0.17 0.18 0.17 0.16 0.16 0.17 0.17 0.18 0.18 0.18 0.18 0.18 0.19 0.19 0.20 0.21 0.23 0.24 0.23 0.24 0.23 0.24 0.27 0.29 0.28 0.27 0.30 0.30 0.31 0.29 0.32 0.36 0.34 0.39 0.37 0.46 0.47 0.54
0.24 0.23 0.21 0.18 0.18 0.18 0.18 0.16 0.16 0.16 0.17 0.18 0.18 0.18 0.18 0.19 0.17 0.18 0.19 0.20 0.22 0.24 0.26 0.24 0.22 0.26 0.27 0.27 0.27 0.28 0.29 0.28 0.30 0.33 0.34 0.31 0.35 0.40 0.43 0.50 0.46 0.43 0.46
0.23 0.21 0.19 0.19 0.19 0.18 0.17 0.15 0.16 0.17 0.18 0.19 0.19 0.20 0.19 0.19 0.18 0.19 0.20 0.22 0.24 0.24 0.23 0.24 0.25 0.25 0.25 0.24 0.25 0.23 0.22 0.25 0.28 0.33 0.34 0.36 0.39 0.43 0.44 0.47 0.47 0.46 0.51
0.21 0.20 0.20 0.20 0.19 0.17 0.15 0.17 0.18 0.19 0.19 0.19 0.20 0.20 0.20 0.20 0.21 0.22 0.23 0.24 0.24 0.23 0.25 0.25 0.24 0.22 0.19 0.20 0.20 0.24 0.22 0.23 0.27 0.31 0.35 0.37 0.38 0.42 0.41 0.36 0.37 0.41 0.48
0.21 0.21 0.21 0.19 0.17 0.16 0.17 0.18 0.20 0.20 0.20 0.20 0.19 0.19 0.19 0.20 0.21 0.23 0.25 0.27 0.26 0.27 0.27 0.28 0.24 0.20 0.19 0.21 0.21 0.20 0.23 0.23 0.21 0.31 0.32 0.30 0.32 0.31 0.33 0.36 0.38 0.45 0.49
0.22 0.22 0.20 0.18 0.16 0.16 0.17 0.19 0.21 0.21 0.21 0.20 0.20 0.19 0.19 0.20 0.23 0.25 0.24 0.24 0.28 0.30 0.28 0.26 0.23 0.20 0.19 0.22 0.24 0.23 0.24 0.24 0.23 0.27 0.30 0.25 0.32 0.33 0.37 0.39 0.41 0.41 0.49
0.22 0.20 0.18 0.17 0.16 0.16 0.17 0.19 0.21 0.21 0.20 0.20 0.20 0.20 0.20 0.23 0.25 0.23 0.23 0.27 0.27 0.24 0.24 0.23 0.21 0.24 0.27 0.25 0.24 0.24 0.26 0.27 0.30 0.32 0.36 0.29 0.35 0.34 0.37 0.43 0.47 0.51 0.53
0.21 0.19 0.17 0.16 0.16 0.15 0.17 0.19 0.21 0.21 0.19 0.19 0.20 0.21 0.24 0.25 0.24 0.24 0.29 0.26 0.23 0.21 0.20 0.24 0.25 0.25 0.22 0.22 0.26 0.28 0.26 0.27 0.26 0.31 0.36 0.33 0.34 0.36 0.40 0.37 0.40 0.49 0.52
0.19 0.17 0.16 0.16 0.16 0.16 0.18 0.21 0.22 0.21 0.19 0.19 0.22 0.24 0.25 0.23 0.25 0.30 0.25 0.22 0.20 0.18 0.21 0.21 0.21 0.19 0.22 0.24 0.27 0.29 0.30 0.27 0.28 0.28 0.34 0.33 0.33 0.36 0.30 0.41 0.46 0.47 0.50
Wind_Speed
16 17 19 20 21 23 24 26 27 27 27 28 29 29 30 31 33 34 35 36 37 39 39 40 40 41 42 42 43 43 44 44 44 44 44 43 43 43 42 41 40 40 39
18 20 21 22 24 25 26 27 28 29 30 30 31 32 33 34 36 37 38 38 39 41 42 43 43 44 44 45 45 46 46 47 47 47 47 47 46 46 45 45 44 43 42
20 21 22 23 24 26 27 28 29 29 30 31 32 33 34 35 36 37 38 39 40 41 42 43 44 46 47 47 48 48 49 49 49 49 49 49 49 49 48 48 47 47 46
20 21 22 23 25 26 27 27 29 30 31 32 33 34 35 36 38 38 39 40 41 42 42 43 45 46 47 48 49 50 51 51 51 51 51 51 51 51 51 51 50 49 49
20 21 22 23 24 25 26 27 29 30 32 33 34 35 36 37 38 39 40 41 42 43 43 44 45 46 48 49 49 50 51 52 53 53 53 53 52 52 53 52 52 52 51
19 20 21 22 24 25 27 29 30 31 33 35 36 38 39 40 40 40 41 42 42 43 44 46 46 46 47 48 50 51 52 53 54 55 55 56 56 56 56 56 55 54 53
20 21 23 24 26 27 29 31 32 34 35 37 40 41 42 41 40 43 40 44 47 48 48 48 49 49 49 50 52 52 53 53 54 55 56 57 58 58 58 58 58 57 56
21 22 24 25 27 29 31 33 35 37 37 39 41 44 42 44 42 46 50 48 49 51 50 49 49 51 52 53 54 54 54 55 55 56 57 58 59 59 60 60 60 60 59
22 24 26 28 30 32 33 35 36 38 39 40 41 42 45 46 50 49 50 49 49 52 54 54 55 56 57 57 58 58 58 57 57 58 59 59 60 61 61 61 60 60 61
24 26 28 30 32 34 35 36 37 39 40 42 43 43 46 49 51 55 50 55 54 55 57 58 58 59 60 60 58 58 60 61 62 61 60 59 59 59 61 61 62 62 62
26 29 31 32 34 34 35 37 38 39 41 43 45 47 49 50 52 54 59 57 59 59 60 61 61 59 60 61 60 58 58 58 58 58 60 60 59 59 58 57 59 61 60
28 31 32 33 34 35 36 38 40 42 43 45 47 49 50 52 54 56 59 61 62 61 62 62 62 60 60 59 56 55 56 56 56 56 55 54 56 54 53 57 62 54 48
31 33 33 34 35 37 39 41 43 44 46 48 50 51 53 55 57 58 60 63 64 65 64 62 61 60 59 59 58 58 58 58 58 56 55 56 55 54 55 51 47 57 58
32 34 35 36 38 39 41 43 45 47 49 50 53 54 55 57 58 59 60 62 65 66 66 66 63 60 59 59 59 59 57 57 57 58 57 56 56 56 55 57 54 50 49
34 36 37 39 40 42 44 46 48 50 52 53 55 56 58 59 59 60 62 63 64 66 66 66 63 61 60 59 57 56 56 57 55 55 54 55 56 55 55 54 55 54 52
37 38 39 40 42 44 46 49 50 52 54 56 57 59 59 60 61 62 62 63 62 61 62 62 61 60 60 58 56 56 55 56 53 52 51 51 50 51 53 54 53 53 55
38 39 40 42 44 46 49 51 53 55 57 58 59 60 61 62 62 63 63 61 59 57 57 59 56 57 58 59 58 57 55 54 52 52 51 49 50 50 51 51 53 53 52
39 40 42 44 46 49 51 54 55 56 58 59 61 62 63 63 63 63 60 58 56 55 53 54 53 53 52 52 53 56 56 53 53 51 51 50 49 49 49 50 50 50 52
40 42 44 47 49 51 53 55 56 58 59 61 62 63 63 62 62 59 57 55 52 50 49 50 51 50 51 50 51 51 51 52 50 49 49 49 48 47 48 47 47 50 50
42 44 46 49 51 53 54 55 58 59 60 61 62 62 61 60 58 56 53 50 49 48 48 48 48 49 50 50 49 48 47 46 47 46 47 47 48 48 48 48 48 49 49
44 46 49 51 53 54 55 57 59 60 62 63 62 60 59 57 55 52 50 49 48 47 46 46 47 48 49 47 45 43 43 42 42 43 43 42 44 45 47 50 52 52 53
46 49 51 53 54 55 57 58 60 61 62 61 60 59 56 54 51 50 49 48 46 45 46 45 46 48 48 45 43 42 39 38 37 36 37 40 42 44 46 47 49 50 51
48 51 52 53 55 56 57 59 61 60 60 59 58 56 54 50 49 48 48 46 45 43 43 47 49 48 47 43 42 39 36 35 33 32 34 35 34 36 38 39 41 42 43
51 52 53 55 56 56 58 59 59 59 58 57 55 53 50 49 47 47 46 46 42 42 44 48 46 44 43 41 38 36 33 32 29 27 26 27 29 31 30 30 31 32 35
52 53 54 56 56 57 58 57 58 57 56 54 51 49 48 47 47 47 45 43 43 44 46 43 43 42 40 36 31 29 26 24 23 22 23 26 25 24 24 27 26 26 27
53 55 56 56 56 56 56 56 56 54 53 51 50 49 48 47 47 45 46 45 43 43 43 40 37 36 32 29 27 25 25 22 22 22 21 21 22 21 19 17 16 19 20
Wind_Direction
289 290 290 291 292 294 294 296 295 293 292 291 290 289 288 287 286 286 285 285 282 281 280 279 278 276 275 273 272 271 270 269 268 267 266 265 265 264 263 262 262 262 261
292 293 293 293 294 295 296 297 296 295 293 292 291 290 289 288 287 287 286 286 284 282 281 279 278 277 275 274 273 271 270 269 269 267 266 265 264 263 262 262 261 261 260
294 295 296 297 297 298 298 299 298 297 296 294 293 293 292 291 290 289 288 287 287 285 282 281 279 277 276 274 273 272 271 270 268 267 266 265 264 263 262 261 261 260 259
296 297 298 299 300 300 301 301 301 300 299 298 296 296 295 294 292 291 290 289 288 287 285 282 281 280 278 276 274 273 271 270 268 267 266 265 264 262 262 261 260 259 259
299 299 301 302 303 303 304 304 304 303 302 300 299 298 297 296 295 293 292 291 290 288 287 286 283 281 279 278 276 274 272 271 269 267 266 264 263 262 261 260 260 259 258
305 304 305 306 306 306 306 306 305 305 304 302 301 299 298 297 296 294 293 292 291 290 288 287 286 283 280 279 278 276 274 272 270 268 266 265 263 262 261 260 259 259 258
307 307 306 307 307 307 307 307 306 306 304 304 303 301 300 297 297 296 295 294 292 290 288 287 286 284 282 280 278 277 275 274 272 269 267 265 264 262 261 260 259 258 257
308 308 308 308 308 308 308 308 308 307 305 306 305 304 302 299 297 297 296 294 293 291 288 288 286 285 283 281 279 278 276 274 273 271 269 266 264 262 261 260 259 257 257
310 310 310 309 309 308 309 309 309 309 307 307 307 304 304 301 301 299 297 294 294 292 290 288 287 285 283 281 279 277 274 274 273 271 270 268 265 263 262 260 259 258 257
310 311 310 310 310 309 310 310 310 310 309 308 308 306 303 303 303 302 299 299 296 295 293 291 289 287 285 282 280 277 275 274 271 270 269 268 266 264 262 261 259 258 257
310 311 311 311 311 311 311 312 312 312 310 309 309 308 306 304 302 301 299 299 297 296 294 293 291 289 287 284 282 280 278 275 273 271 269 267 265 264 263 262 261 258 258
311 313 313 313 313 312 312 312 312 311 311 310 309 308 307 306 304 303 300 299 298 297 296 294 292 290 288 286 283 281 278 277 275 272 270 268 265 264 263 262 257 258 260
313 313 313 313 312 312 312 312 312 312 311 310 310 308 307 306 305 303 302 300 299 298 297 295 294 291 288 286 283 281 280 277 275 273 270 268 267 264 261 261 263 257 255
313 313 313 312 312 312 313 313 312 312 311 311 310 309 308 307 306 304 303 302 300 298 296 295 293 291 289 287 285 283 281 279 276 273 271 270 267 264 262 260 261 259 256
313 313 312 312 313 313 313 313 313 313 312 311 311 310 309 308 306 305 303 302 300 299 297 295 293 291 289 288 285 283 282 280 277 275 272 270 267 264 261 261 260 259 257
313 313 313 313 313 313 314 314 313 313 313 312 311 311 310 309 307 306 305 303 301 299 297 297 294 292 290 287 285 284 282 280 277 275 274 271 266 265 263 261 261 259 257
314 313 313 314 314 314 314 314 314 314 313 313 312 312 310 309 308 307 306 304 302 300 299 299 297 296 293 289 285 282 280 279 276 274 272 269 268 266 265 262 260 259 258
314 314 314 314 314 315 315 315 314 314 314 314 313 312 311 311 309 308 306 304 302 301 300 300 300 300 298 295 290 284 280 277 276 273 271 268 267 266 265 263 260 260 258
314 314 315 315 315 315 315 315 315 315 315 314 314 313 312 311 310 309 307 305 303 302 302 301 301 301 301 299 295 291 284 278 274 272 270 267 265 265 265 263 262 260 259
314 315 315 315 315 315 315 316 316 316 315 315 315 314 313 312 311 310 308 306 305 304 303 302 302 303 304 302 298 294 288 282 275 271 271 265 266 265 264 263 263 262 257
314 315 315 315 315 316 316 317 316 316 316 316 315 315 314 312 311 310 308 307 306 305 304 304 303 305 307 305 301 298 292 286 279 273 270 267 266 266 265 266 264 261 257
314 315 315 315 316 316 316 317 317 317 317 316 316 315 314 313 312 311 309 307 306 306 306 305 305 305 307 305 302 299 295 290 284 275 274 271 271 269 268 266 265 261 257
315 315 315 315 316 316 316 317 317 317 317 317 316 316 315 314 313 311 310 308 307 306 305 307 306 305 305 304 303 300 296 291 286 281 279 275 274 271 272 268 264 258 254
315 315 315 315 316 316 317 317 318 318 318 317 317 317 316 315 314 313 312 310 308 308 308 308 306 305 304 304 301 299 297 293 288 284 280 277 281 277 274 269 264 255 251
315 315 315 315 316 316 317 318 319 319 319 319 318 318 317 316 315 314 313 311 310 310 311 309 307 307 306 305 303 301 299 295 292 286 288 285 284 279 274 272 263 252 251
315 316 315 316 316 317 318 318 319 320 320 320 320 318 317 316 316 315 313 312 310 313 313 312 311 311 309 307 305 301 301 293 293 292 295 287 290 283 275 264 254 254 250